Theta_e
329 331 331 331 332 332 332 331 331 330 329 329 330 329 329 328 329 329 327 327 326 325 324 323 322 322 322 322 321 321 321 321 322 323 322 321 320 319 318 318 319 320 319 319 319 319 319 321 318 318 319 316
326 327 329 330 330 330 330 330 329 328 328 327 326 326 325 325 325 326 327 326 325 323 322 321 321 321 321 321 320 320 320 320 320 320 319 319 318 317 317 317 318 318 318 318 318 318 319 318 318 318 319 315
325 324 325 326 326 326 325 326 325 324 324 322 321 321 320 321 322 323 323 323 324 323 322 322 321 321 320 320 319 319 318 318 322 321 319 317 316 316 313 313 316 315 316 316 317 317 318 317 316 318 315 312
324 322 322 321 321 320 320 320 320 319 319 318 318 318 319 319 317 318 319 320 319 321 320 320 318 320 319 318 318 317 317 318 320 319 317 316 315 314 313 311 313 313 314 315 315 315 316 315 315 312 310 311
321 319 319 318 318 318 318 318 318 317 317 317 317 317 317 318 317 316 315 314 315 317 317 319 318 318 320 319 318 317 316 317 319 316 311 309 310 312 310 311 310 312 313 313 313 315 314 314 309 309 309 308
319 318 318 317 316 316 316 316 316 315 315 313 316 316 317 316 315 316 315 314 313 313 314 316 317 317 319 319 319 320 319 318 316 312 309 308 308 309 310 311 306 309 313 312 311 312 314 307 307 308 308 306
319 318 318 317 316 316 316 315 315 315 316 316 316 317 316 314 313 312 312 312 312 312 315 315 316 317 318 318 318 318 318 316 313 312 309 308 308 310 312 309 304 304 306 306 313 312 305 304 304 305 305 307
320 318 318 317 316 316 317 317 316 317 317 317 318 318 316 314 312 311 309 308 307 309 310 312 314 314 315 316 316 316 314 313 312 312 310 308 308 310 307 299 298 297 300 301 302 304 304 303 303 304 305 306
320 319 318 317 317 316 316 317 317 318 318 318 318 317 315 315 313 311 310 309 310 310 310 309 309 309 309 309 308 312 308 308 308 309 305 304 302 297 298 297 298 298 298 301 302 302 303 303 302 303 304 306
320 320 317 317 316 316 316 317 316 316 316 316 316 316 315 314 313 312 312 312 312 312 311 310 309 308 306 307 308 308 308 306 304 303 300 299 296 296 296 296 296 297 298 299 299 301 302 303 304 304 303 304
320 319 317 317 316 315 314 314 314 314 314 315 314 314 313 314 311 310 310 311 310 310 310 309 308 306 305 306 306 306 306 305 304 301 298 296 296 296 296 296 296 296 297 297 298 299 300 302 302 302 303 303
320 318 317 316 315 315 314 314 313 313 313 312 311 311 312 311 311 309 309 309 308 308 308 307 306 306 304 303 303 304 305 304 303 301 297 297 297 295 295 296 296 295 294 294 295 296 298 299 300 300 300 302
318 318 317 316 316 314 314 313 311 309 308 307 307 307 308 309 310 309 308 308 307 307 306 304 304 303 302 302 303 302 302 303 303 299 296 295 294 294 294 293 293 293 295 293 294 293 295 295 296 296 298 299
318 317 316 316 314 313 311 309 308 306 305 304 304 304 305 306 308 308 307 307 307 306 304 302 301 301 300 300 300 301 300 299 299 297 295 295 294 293 292 293 293 292 293 294 294 293 293 294 294 293 294 297
318 317 316 315 313 311 308 306 304 303 302 301 301 301 302 303 305 305 305 304 304 304 301 299 298 298 298 298 298 299 299 299 298 297 295 294 292 291 291 292 293 292 292 291 293 294 294 294 293 293 293 294
317 316 314 312 311 308 305 303 301 300 300 299 299 299 299 300 301 302 301 300 300 299 297 296 295 295 296 297 297 298 299 299 298 296 295 294 294 293 292 292 292 292 291 290 291 292 293 294 294 293 293 293
313 312 312 309 305 303 302 301 300 299 298 297 297 297 298 298 298 298 299 298 298 297 295 294 294 294 294 294 295 297 299 299 298 296 294 294 294 293 292 293 291 295 293 291 292 292 292 292 292 292 293 293
306 304 302 302 302 301 300 299 298 297 297 296 296 296 296 296 296 296 296 297 296 295 294 294 293 293 293 294 295 295 295 294 295 294 294 295 293 294 292 291 291 290 290 289 290 291 292 292 291 291 291 292
298 298 298 297 297 297 296 296 295 295 295 295 295 295 295 296 296 295 295 295 295 294 294 292 292 292 293 293 294 293 294 293 293 294 293 293 292 292 292 293 292 291 290 290 289 290 289 289 290 290 290 291
294 293 293 293 293 293 293 292 291 291 292 292 293 293 293 294 294 295 295 294 294 293 293 292 292 292 293 293 293 293 293 293 292 293 293 293 293 291 291 292 291 292 292 292 291 291 291 291 291 290 290 291
292 291 290 290 289 288 288 288 288 288 289 289 289 290 290 290 291 291 292 294 294 293 292 292 292 292 292 292 292 292 292 292 292 292 292 292 293 292 291 291 291 291 291 291 291 291 292 292 292 292 292 293
291 289 288 287 287 287 286 286 286 286 287 286 287 287 287 288 288 288 289 290 292 293 293 292 292 291 292 292 292 291 290 290 290 290 290 290 291 291 291 290 290 290 290 291 291 290 290 291 291 292 292 293
289 288 287 287 286 285 284 284 285 285 284 285 285 285 286 286 286 286 286 287 288 290 291 290 290 289 290 290 290 289 288 288 288 288 288 288 289 291 291 290 290 291 290 291 290 289 289 290 290 291 290 291
290 288 287 285 285 284 283 283 283 283 283 283 283 284 284 284 284 284 284 284 285 285 286 286 286 285 286 288 287 285 284 284 284 284 285 285 286 287 289 290 290 290 289 289 289 289 289 289 289 290 290 290
288 286 285 284 283 282 282 282 282 282 282 282 282 283 283 283 283 283 283 283 282 282 283 283 283 282 282 284 285 283 282 283 282 283 283 284 285 285 284 286 289 288 288 287 286 287 286 287 288 290 291 291
286 286 284 283 282 282 281 281 280 280 280 281 281 281 281 281 281 281 281 281 281 280 280 280 280 280 280 281 282 282 282 281 282 280 280 281 281 283 283 283 285 285 286 283 283 282 282 282 286 288 289 289
285 285 284 283 282 281 280 281 281 280 280 280 280 280 280 280 280 280 279 279 279 279 278 278 278 278 279 279 280 279 279 278 278 278 278 278 279 279 281 282 285 284 284 279 282 281 279 279 280 283 284 286
285 285 284 284 283 283 281 280 281 280 280 279 278 278 278 278 278 278 278 278 278 278 277 277 277 277 277 277 278 278 277 276 276 277 277 277 278 278 276 278 280 283 282 282 281 276 277 277 277 276 279 280
285 284 283 283 283 283 282 281 280 279 278 278 278 277 276 276 277 277 277 277 277 277 276 276 276 276 276 276 276 277 276 275 275 276 276 276 275 276 276 275 277 279 280 280 281 278 276 275 275 274 276 280
282 282 282 281 279 278 277 276 276 276 276 276 275 275 276 276 276 276 276 276 276 276 276 275 275 275 275 275 275 275 275 275 275 275 275 275 274 274 276 275 275 275 278 279 280 279 278 277 274 276 278 277
281 280 280 279 278 277 276 275 276 277 277 277 277 276 275 275 275 275 274 274 274 275 275 274 274 274 274 274 274 275 274 273 274 274 274 275 274 274 276 274 273 274 274 275 277 277 277 278 278 276 275 273
Wind_Speed
15 15 15 15 15 16 16 16 15 15 15 15 15 16 15 16 17 17 16 16 17 17 17 15 14 14 13 12 11 10 9 9 9 12 13 11 11 10 9 9 8 9 10 10 10 11 10 10 10 10 8 5
15 15 14 14 15 16 15 14 14 14 14 14 14 14 15 15 15 16 15 16 16 17 17 15 14 14 14 13 11 10 8 9 8 10 11 11 11 8 9 8 7 9 9 10 10 10 10 10 10 10 9 5
10 14 15 16 15 16 16 12 12 14 13 14 14 14 15 15 14 14 14 14 14 15 15 14 13 12 15 13 12 11 10 10 16 16 13 11 9 8 8 8 6 8 9 9 10 10 9 10 10 11 7 4
9 13 16 16 17 18 18 17 16 15 14 14 14 14 13 13 12 12 11 15 12 11 13 13 10 12 13 13 12 10 10 11 15 14 12 9 7 6 7 7 6 6 7 9 9 10 9 10 10 6 4 5
9 12 15 13 16 17 17 15 14 15 14 12 11 10 10 10 8 7 7 8 9 10 9 11 11 11 12 13 12 11 9 10 14 12 10 8 6 4 6 6 5 6 4 6 8 9 9 9 6 4 5 5
7 8 11 10 9 9 11 12 12 10 8 8 6 9 7 6 7 7 6 6 7 7 9 10 12 10 11 13 13 14 14 12 12 10 7 5 4 4 6 7 2 4 1 2 3 5 9 6 5 6 5 5
7 9 8 8 8 7 9 7 7 6 6 4 5 4 5 7 7 7 6 6 6 7 10 10 12 12 11 11 13 12 12 11 10 7 5 1 2 4 7 5 3 1 1 1 3 4 3 4 4 5 5 5
7 7 7 7 7 6 6 6 5 4 5 4 3 4 6 6 6 7 6 9 11 8 6 7 10 13 12 11 10 11 7 7 4 4 3 1 2 4 2 6 7 7 6 3 1 2 2 4 5 4 4 4
7 7 7 6 6 5 5 5 5 5 3 3 3 5 6 7 7 7 6 5 4 4 5 4 4 5 5 5 4 5 4 4 2 3 3 0 4 4 6 5 6 6 6 6 6 7 6 5 3 3 3 4
8 8 7 7 6 5 5 4 5 5 4 4 5 5 5 5 5 7 6 4 2 3 3 4 3 3 3 4 4 4 2 3 2 1 4 4 3 4 4 4 3 3 4 5 6 5 5 6 5 6 4 4
7 7 7 7 7 6 5 5 6 5 5 5 5 4 2 4 5 6 6 5 4 4 5 6 6 7 6 4 3 2 4 3 0 3 4 4 1 0 2 3 2 2 2 2 2 3 4 5 5 6 5 5
6 6 7 7 7 6 6 5 5 6 6 7 7 7 7 5 5 6 6 6 5 6 6 6 5 5 5 5 5 5 4 3 3 2 4 2 1 3 2 2 1 2 3 3 2 4 3 4 5 4 6 5
6 7 6 7 6 7 6 6 6 7 8 7 7 8 8 7 6 6 6 6 6 6 6 5 5 4 4 2 2 2 2 3 1 3 4 4 2 3 2 2 5 4 2 3 4 4 4 4 4 4 4 4
6 6 7 6 7 6 8 7 8 8 8 7 7 8 8 8 7 7 6 6 6 7 5 3 2 3 4 2 2 2 3 5 5 3 4 3 4 3 4 4 4 4 4 1 2 3 4 4 5 4 5 4
7 7 6 7 7 8 8 9 9 8 8 8 8 7 8 8 8 8 8 7 6 6 5 6 6 6 6 6 6 7 7 6 6 5 5 4 4 3 3 3 2 3 4 4 1 2 2 2 3 5 4 5
5 7 9 8 8 9 9 9 8 8 8 8 8 8 8 7 7 7 7 7 6 6 6 6 6 6 7 7 7 6 5 5 5 3 3 3 1 1 2 1 2 2 1 3 2 3 1 1 1 3 4 4
8 9 9 9 10 9 9 9 9 9 8 8 8 8 8 8 8 7 6 6 6 6 6 5 6 7 7 6 7 5 3 3 3 2 1 2 1 1 2 1 2 0 1 1 1 1 0 1 3 3 2 3
10 11 10 10 9 9 10 8 9 9 8 8 8 8 8 8 8 7 6 6 6 5 5 6 7 6 6 6 5 5 6 6 5 4 4 2 3 0 0 3 3 4 4 4 3 2 1 0 3 2 3 3
10 10 10 9 9 9 9 9 9 8 8 7 7 8 8 8 8 8 7 6 6 6 6 6 6 6 5 6 5 6 6 6 7 6 6 6 5 6 6 5 3 3 3 2 3 3 3 3 3 4 3 3
11 10 10 10 9 10 10 10 9 9 9 8 8 9 9 10 9 7 6 7 6 7 6 6 6 5 5 6 5 6 7 7 8 8 7 8 8 6 6 6 7 7 6 6 5 5 5 5 4 4 4 4
12 11 11 11 11 10 11 9 9 9 8 9 9 9 9 9 9 10 9 6 6 7 6 6 6 6 6 5 6 7 8 8 7 7 6 6 7 7 6 6 6 6 6 5 6 6 6 6 6 5 5 5
10 10 11 10 11 11 11 11 9 9 9 10 9 9 9 10 9 10 10 11 8 6 7 6 6 6 7 7 8 8 8 8 8 8 8 7 7 6 6 6 5 6 5 5 5 5 6 6 5 5 6 6
11 11 11 10 11 12 11 11 10 9 10 9 9 10 10 10 10 10 11 11 11 9 9 9 9 9 7 7 8 9 9 9 10 10 9 9 8 6 4 4 4 4 5 5 5 5 7 6 7 6 6 5
9 8 8 9 9 11 10 10 10 10 10 9 10 10 10 11 10 11 11 12 11 10 10 10 9 9 9 8 8 9 9 9 8 9 9 9 7 8 7 6 6 7 7 6 6 7 6 6 7 8 7 6
6 8 9 10 10 10 9 9 10 10 10 10 10 11 11 12 11 12 12 12 11 11 10 9 8 9 10 8 8 9 9 8 9 9 7 6 5 7 7 6 7 9 6 5 5 6 7 7 6 7 6 7
8 7 7 8 9 9 8 8 9 10 9 10 10 12 12 11 11 12 12 11 11 11 10 9 9 9 9 9 8 8 8 9 9 10 10 8 8 7 7 5 7 8 6 6 6 7 7 5 6 7 7 4
9 9 9 9 9 9 10 10 10 10 11 10 11 12 12 12 12 11 11 11 11 10 10 10 9 9 8 10 8 8 9 10 11 10 10 10 8 7 7 5 5 9 8 4 6 5 1 4 7 6 7 8
10 12 12 11 11 11 11 11 11 12 11 12 13 13 12 12 11 11 11 11 10 10 10 10 10 8 9 9 9 8 8 9 10 10 10 10 10 7 7 7 5 8 10 8 7 5 2 3 1 4 5 9
10 11 11 10 11 10 11 10 9 9 10 11 11 11 11 11 11 11 11 11 11 10 10 10 9 9 9 9 9 8 9 9 9 9 8 10 9 9 6 7 4 6 9 8 8 4 4 5 5 2 4 9
8 7 8 8 7 8 8 9 8 10 10 9 10 11 10 11 11 11 11 11 11 11 10 10 10 9 9 9 8 9 8 7 8 10 10 9 8 8 9 5 6 7 8 6 8 7 4 1 1 6 7 4
9 10 10 11 10 10 9 10 9 9 9 9 9 9 11 11 11 11 11 11 11 10 10 10 10 10 9 9 8 7 7 8 9 8 8 7 9 8 7 8 7 8 8 7 7 8 7 5 4 3 4 3
Wind_Direction
122 120 121 125 122 118 111 105 100 94 95 95 92 89 83 81 79 85 91 92 98 100 97 94 90 86 84 79 76 76 79 79 81 67 59 57 58 49 46 40 38 22 17 15 12 9 8 353 353 357 346 338
123 124 120 115 115 112 106 101 100 96 92 89 87 86 89 85 83 81 81 88 97 99 98 95 91 88 86 81 74 72 75 78 75 63 64 59 54 47 38 30 30 18 17 16 10 7 357 353 343 344 345 331
109 106 106 109 107 102 98 87 89 91 88 89 87 89 90 88 84 81 76 71 75 89 92 90 86 85 86 84 81 75 73 79 67 61 54 57 49 36 22 16 20 15 18 14 11 3 352 345 340 334 344 358
113 110 110 111 110 109 107 105 104 101 98 99 102 101 95 93 88 83 77 78 71 61 75 84 88 88 89 89 87 82 78 85 76 66 58 49 29 10 356 359 358 6 22 13 7 360 345 339 341 337 328 4
107 108 108 109 113 114 115 114 111 108 107 107 110 108 107 101 100 93 82 77 81 74 73 79 85 90 93 94 90 86 89 87 79 68 44 30 27 350 338 329 325 315 29 18 8 349 337 336 337 323 1 351
118 116 113 112 107 107 108 112 113 114 119 120 119 115 106 94 77 80 91 92 87 87 85 80 85 91 99 97 90 87 86 88 85 74 53 31 14 336 306 316 305 260 357 6 13 330 323 336 324 8 358 346
120 116 113 109 107 103 106 110 110 112 117 123 127 130 117 89 85 81 78 83 94 104 104 101 93 88 87 92 95 95 95 91 92 83 76 56 282 310 317 302 324 50 205 225 293 311 304 304 21 349 341 319
119 121 112 113 115 118 117 110 119 122 119 132 149 130 98 101 104 101 98 106 113 109 107 111 110 107 102 98 103 109 101 102 114 122 118 263 288 275 333 16 12 359 344 359 311 277 315 28 15 345 323 332
129 124 115 115 115 118 112 118 117 107 106 105 87 75 101 121 122 120 127 137 141 142 124 109 103 107 114 124 130 144 140 146 167 166 177 229 8 39 39 20 14 10 358 356 1 5 16 1 349 327 333 337
131 126 125 127 124 122 111 111 101 87 79 70 70 90 101 106 122 131 135 145 139 102 118 130 141 156 145 125 144 214 147 104 85 56 68 56 40 34 46 32 10 25 23 359 356 8 6 357 348 341 356 1
136 130 133 130 129 125 106 92 94 89 72 66 62 58 46 97 92 95 94 74 42 40 41 41 33 38 32 27 34 13 77 78 111 84 74 58 30 141 85 62 355 2 63 24 351 359 13 2 340 340 353 351
127 124 126 124 125 120 122 110 94 81 68 50 41 30 22 42 73 94 91 77 57 46 43 35 25 35 33 19 27 353 30 85 37 76 100 113 7 40 31 118 57 11 23 347 33 19 26 0 334 343 349 346
110 109 114 122 117 113 109 87 77 72 65 55 44 35 32 24 45 51 68 75 64 61 53 30 23 29 49 16 33 5 347 47 12 68 73 62 7 55 343 19 48 354 9 6 32 21 17 2 340 342 332 336
113 115 108 93 97 90 80 77 72 67 64 54 49 40 31 34 42 46 57 64 70 64 51 42 13 24 34 38 20 8 30 32 18 35 48 47 20 33 9 42 54 3 349 20 49 47 12 354 337 338 345 341
110 110 108 96 89 84 81 76 74 69 66 59 51 42 39 37 45 50 43 47 48 59 50 30 22 24 8 9 31 23 24 23 19 26 62 48 35 14 10 348 66 45 357 340 356 89 59 351 337 329 337 341
96 90 84 82 83 79 77 77 75 72 66 61 54 45 45 41 43 54 54 43 43 56 51 36 25 23 21 21 19 33 22 11 350 24 71 66 18 308 296 339 18 81 8 312 343 42 31 337 320 319 332 344
70 74 74 73 74 76 77 78 76 72 69 68 60 55 49 45 46 46 56 51 47 53 53 48 35 35 30 15 0 6 10 328 292 292 79 132 218 279 338 313 290 141 236 284 291 97 304 18 330 310 301 305
59 66 71 76 77 76 78 77 77 74 73 70 67 61 53 51 49 47 42 55 52 49 54 50 45 37 28 4 357 354 12 3 344 13 30 336 344 352 344 0 3 28 358 331 350 8 325 268 249 279 325 336
59 60 67 70 73 73 74 75 74 70 67 67 68 62 57 51 52 46 43 46 55 48 53 56 51 37 19 4 3 11 7 4 5 2 21 16 17 358 355 355 12 11 334 344 342 323 352 337 344 356 326 297
61 59 63 65 60 67 62 64 61 57 52 49 48 50 47 36 34 36 46 53 49 58 53 56 49 37 19 14 13 17 8 18 22 12 10 12 11 8 0 4 355 358 356 350 347 353 1 347 341 327 318 311
61 63 64 65 64 64 65 60 59 56 56 53 50 48 48 39 34 29 22 30 65 61 60 55 52 37 23 16 24 21 26 31 22 20 10 16 17 12 7 12 11 4 12 1 352 347 344 335 328 310 282 270
74 69 70 68 68 63 62 60 57 58 56 53 50 47 46 39 38 32 26 23 17 77 70 60 53 45 34 33 35 33 33 29 20 17 11 9 9 8 6 3 1 356 1 358 340 331 321 306 297 283 276 266
80 80 77 75 72 68 66 66 61 59 58 55 52 50 46 43 40 34 32 27 24 32 45 44 36 26 28 42 43 41 36 30 22 18 10 9 353 348 351 351 341 10 1 337 321 303 285 279 276 275 280 277
86 81 79 83 82 74 66 67 67 61 60 57 56 52 51 47 45 40 37 34 30 32 42 43 34 29 22 42 47 44 40 31 25 16 7 2 1 1 355 359 14 12 347 319 301 290 292 281 271 268 262 261
87 88 92 82 77 82 76 73 73 68 62 60 58 53 52 49 48 46 44 40 35 35 35 39 35 32 24 26 49 49 42 35 29 21 11 0 5 7 3 353 21 2 342 325 342 336 324 319 307 284 265 248
73 68 77 92 88 89 82 78 73 73 65 64 60 56 53 52 49 48 50 47 45 41 37 37 36 34 30 27 34 48 46 36 30 24 19 9 13 7 4 1 7 347 8 9 351 332 325 321 302 282 280 290
92 94 89 90 95 93 93 82 81 81 76 69 66 60 55 52 50 47 48 48 47 46 40 38 40 36 33 34 31 37 40 34 32 25 21 15 21 358 4 359 351 5 26 356 314 282 353 325 1 328 7 3
88 95 97 93 96 95 92 95 88 81 75 69 65 60 56 54 49 47 48 44 48 48 44 42 40 38 38 37 34 36 38 37 33 24 21 17 15 18 15 4 339 16 14 21 5 16 342 263 269 308 9 349
96 97 98 96 91 86 85 79 76 77 71 66 64 64 53 48 49 48 47 45 45 47 45 42 41 41 39 40 38 36 39 38 35 28 24 21 17 19 24 2 348 352 16 16 37 34 8 352 11 9 318 338
49 60 79 83 84 82 79 76 64 63 68 67 63 62 62 53 47 48 48 43 41 44 43 40 38 40 39 40 38 37 36 38 34 28 25 23 18 13 19 15 7 2 3 7 33 35 54 41 253 329 316 2
61 67 70 74 76 80 81 84 78 78 75 75 75 75 68 62 52 46 48 45 41 39 42 40 38 37 37 38 41 35 33 32 36 27 24 22 24 15 15 17 25 18 353 358 20 15 360 358 342 320 337 311